Flag for Canada Weather past 2 weeks in Brantford, Ontario, Canada

Now
54 °F

Mostly cloudy.


Feels Like: 52 °F
Forecast: 35 / 57 °F
Wind: 7 mph from Northwest

Location: Hamilton Airport


UV Index: 5 (Moderate)

Visibility: 15 mi


Pressure: 30.24 "Hg

Humidity: 63%

Dew point: 41 °F

Location of BrantfordLocation

Historic Weather in Brantford

°F

Brantford temperature yesterday

Maximum temperature yesterday: 45 °F (at 12:00 PM)
Minimum temperature yesterday: 27 °F (at 3:00 AM)
Average temperature yesterday: 35 °F

Past Weeks' High & Low Weather Summary

 TemperatureHumidityPressure
High72 °F (Apr 13, 4:00 PM)100% (Apr 4, 10:00 AM)30.54 "Hg (Apr 4, 10:00 AM)
Low18 °F (Apr 16, 5:00 AM)32% (Apr 9, 2:00 PM)29.30 "Hg (Apr 8, 5:00 AM)
Average41 °F72%29.95 "Hg
* Reported Apr 3 3:00 PM — Apr 18 3:00 PM, Brantford, Weather by CustomWeather, © 2014

Note: Actual official high and low records may vary slightly from our data, if they occured in-between our weather recording intervals... More about our weather records

Advertising

Historic Weather Conditions — Data for Previous 24 hours

 ConditionsComfort  
Time TempWeatherWind HumidityBarometerVisibility
3:00 PM
Apr 18
54 °FMore clouds than sun.8 mph58%30.25 "Hg15 mi
2:00 PM54 °FMostly cloudy.8 mph58%30.25 "Hg15 mi
1:00 PM54 °FPartly sunny.2 mph58%30.26 "Hg15 mi
12:00 PM48 °FMostly cloudy.7 mph58%30.28 "Hg15 mi
11:00 AM48 °FMostly cloudy.10 mph58%30.29 "Hg15 mi
10:00 AM46 °FMostly cloudy.10 mph62%30.30 "Hg15 mi
9:00 AM45 °FMostly cloudy.8 mph66%30.31 "Hg15 mi
8:00 AM41 °FMostly cloudy.8 mph70%30.30 "Hg15 mi
7:00 AM41 °FMostly cloudy.9 mph66%30.28 "Hg15 mi
6:00 AM41 °FPassing clouds.8 mph66%30.27 "Hg15 mi
5:00 AM41 °FOvercast.8 mph66%30.28 "Hg15 mi
4:00 AM43 °FPassing clouds.9 mph61%30.28 "Hg15 mi
3:00 AM43 °FPassing clouds.10 mph61%30.29 "Hg15 mi
2:00 AM41 °FPassing clouds.10 mph66%30.31 "Hg15 mi
1:00 AM39 °FPassing clouds.12 mph70%30.34 "Hg15 mi
12:00 AM34 °FPassing clouds.5 mph87%30.36 "Hg15 mi
11:00 PM
Apr 17
34 °FPassing clouds.7 mph87%30.35 "Hg15 mi
10:00 PM34 °FPassing clouds.10 mph87%30.37 "Hg15 mi
9:00 PM36 °FPartly sunny.10 mph81%30.37 "Hg15 mi
8:00 PM36 °FPartly sunny.13 mph81%30.38 "Hg15 mi
7:00 PM39 °FPartly sunny.15 mph70%30.39 "Hg15 mi
6:00 PM41 °FPartly sunny.18 mph66%30.41 "Hg15 mi
5:00 PM43 °FPartly sunny.16 mph66%30.40 "Hg15 mi
4:00 PM45 °FPartly sunny.15 mph66%30.42 "Hg15 mi
Weather by CustomWeather, © 2014

See weather overview